STARLINK-34370

Last updated on Thu Jul 03 2025 00:02:06 GMT+0000 (Coordinated Universal Time)

1 64309U 25123U 25183.58335648 .00057354 00000+0 92966-3 0 9994 2 64309 69.9999 120.0728 0003303 269.8664 330.7575 15.52477294 5073
UTC large
Height (km)
Speed (km/s)
/
Latitude / Longitude
Inclination (degrees)
Orbital Period (minutes)
Azimuth
Elevation
Range (km)
Doppler Factor

Next 0 passes for location: London (51.5072 / 0.1276)

Sorry there are no passes over London.